Flag for Germany Weather past 2 weeks in Erlangen, Bavaria, Germany

Now
81 °F

Passing clouds.


Feels Like: 81 °F
Forecast: 61 / 87 °F
Wind: 8 mph from South

Location: Nuernberg

Current Time: Aug 4, 2015 at 10:36:50 AM

Latest Report: Aug 4, 2015 at 10:20 AM


Visibility: N/A

Pressure: 29.95 "Hg

Humidity: 42%

Dew point: 55 °F

Location of ErlangenLocation

Historic Weather in Erlangen — Graph

°F

Erlangen temperature yesterday

Maximum temperature yesterday: 88 °F (at 5:50 PM)
Minimum temperature yesterday: 57 °F (at 5:50 AM)
Average temperature yesterday: 73 °F

Past Weeks' High & Low Weather Summary

 TemperatureHumidityPressure
High97 °F (Jul 22, 3:50 PM)100% (Jul 23, 1:50 AM)30.12 "Hg (Jul 23, 1:50 AM)
Low43 °F (Jul 31, 5:50 AM)22% (Jul 22, 4:20 PM)29.68 "Hg (Jul 25, 12:50 AM)
Average68 °F61%29.94 "Hg
* Reported Jul 20 9:20 AM — Aug 4 9:20 AM, Erlangen, Weather by CustomWeather, © 2015

Note: Actual official high and low records may vary slightly from our data, if they occured in-between our weather recording intervals... More about our weather records

Advertising

Erlangen weather history for previous 24 hours

 ConditionsComfort  
Time TempWeatherWind HumidityBarometerVisibility
9:20 AM
Tue, Aug 4
75 °FPassing clouds.7 mph54%29.95 "HgN/A
8:50 AM73 °FPassing clouds.5 mph61%29.98 "HgN/A
8:20 AM70 °FPassing clouds.3 mph64%29.98 "HgN/A
7:50 AM68 °FSunny.2 mph69%29.98 "Hg10 mi
7:20 AM64 °FPassing clouds.3 mph78%29.98 "HgN/A
6:50 AM61 °FSunny.6 mph83%29.98 "Hg10 mi
6:20 AM61 °FClear.2 mph83%29.98 "Hg10 mi
5:50 AM61 °FClear.6 mph83%29.98 "Hg10 mi
5:20 AM61 °FClear.7 mph83%29.98 "Hg10 mi
4:50 AM63 °FClear.7 mph77%29.98 "Hg10 mi
4:20 AM64 °FClear.6 mph78%30.01 "Hg10 mi
3:50 AM64 °FClear.3 mph73%30.01 "Hg10 mi
3:20 AM64 °FClear.6 mph73%30.01 "Hg10 mi
2:50 AM66 °FClear.2 mph73%30.01 "Hg10 mi
2:20 AM64 °FClear.5 mph73%30.01 "Hg10 mi
1:50 AM66 °FPassing clouds.3 mph68%30.01 "HgN/A
1:20 AM68 °FClear.3 mph69%30.01 "Hg10 mi
12:50 AM70 °FClear.3 mph64%30.01 "Hg10 mi
12:20 AM70 °FClear.3 mph64%30.04 "Hg10 mi
11:50 PM
Mon, Aug 3
68 °FClear.7 mph69%30.04 "Hg10 mi
11:20 PM72 °FPassing clouds.5 mph61%30.04 "HgN/A
10:20 PM75 °FClear.6 mph50%30.04 "Hg10 mi
9:50 PM75 °FSunny.5 mph50%30.04 "Hg10 mi
9:20 PM77 °FSunny.5 mph47%30.04 "Hg10 mi
8:50 PM81 °FSunny.6 mph39%30.01 "Hg10 mi
8:20 PM82 °FSunny.7 mph37%30.01 "Hg10 mi
7:50 PM84 °FSunny.7 mph33%30.01 "Hg10 mi
7:20 PM86 °FSunny.7 mph31%30.01 "Hg10 mi
6:50 PM86 °FPassing clouds.7 mph31%30.01 "HgN/A
6:20 PM88 °FPassing clouds.6 mph27%30.01 "HgN/A
5:50 PM88 °FPassing clouds.7 mph25%30.04 "HgN/A
5:20 PM86 °FSunny.5 mph29%30.04 "Hg10 mi
4:50 PM86 °FSunny.5 mph29%30.04 "Hg10 mi
4:20 PM86 °FPassing clouds.7 mph29%30.04 "HgN/A
3:50 PM86 °FPassing clouds.9 mph29%30.04 "HgN/A
3:20 PM86 °FSunny.3 mph31%30.07 "Hg10 mi
2:20 PM84 °FSunny.5 mph33%30.07 "Hg10 mi
1:50 PM82 °FPassing clouds.7 mph35%30.07 "HgN/A
1:20 PM82 °FSunny.5 mph37%30.07 "Hg10 mi
12:50 PM81 °FSunny.5 mph39%30.09 "Hg10 mi
12:20 PM79 °FSunny.5 mph42%30.09 "Hg10 mi
11:50 AM79 °FPassing clouds.6 mph42%30.09 "HgN/A
11:20 AM77 °FPassing clouds.6 mph47%30.09 "HgN/A
10:50 AM77 °FPassing clouds.6 mph47%30.12 "HgN/A
10:20 AM73 °FSunny.5 mph53%30.12 "Hg10 mi
Weather by CustomWeather, © 2015

See weather overviewHow to use our weather pages